DELTA 1 DEB, 20029

Orbit data source: Space-Track

DELTA 1 DEB, 20029 is space debris in SSO originally from a launch on Sun, 05 Mar 1978 UTC launched from the Air Force Western Test Range (AFWTR). Debris objects in space refer to the collection of defunct objects orbiting the Earth. Examples of debris include non-operational satellites, rocket bodies, and fragments generated from explosions, collisions, or faulty payload assembly.

Loading next visibility...
Identifier
20029, 1978-026HS
Orbit
SSO
Country
Flag of USUS
Related business
Manufacturer
Unknown
Mission
Spacecraft
Bus & Motor
Unknown
Mass
Unknown
Launch date (UTC)
1978-03-05 (48 years ago)
Launch vehicle
Unknown
Launch site
Air Force Western Test Range (AFWTR)
Object type
Payload
Rocket body
Debris
Shape & HBR
Unknown shape, 0.1 m
Radar Cross Section
Medium (>0.1 m² and <1 m²)

Expand to show TLE details & history
Last TLE update: 3 days ago

TLE from 3 days ago
0 DELTA 1 DEB
1 20029U 78026HS  26170.34322339  .00000727  00000-0  22049-3 0  9997
2 20029  98.5837 194.1357 0058707 336.0993  38.2829 14.44313057941643
Epoch: 2026-06-19T08:14Z
TLE epoch observation values (Epoch: 2026-06-19T08:14:14.500Z)
Latitude
14.60471°
Longitude
160.75973°
Altitude
713.782 km
Speed
7.517 km/s
True Right ascension
12h 47m 34s
True Declination
14° 31' 14"
Sunlit
Object was in daylight at epoch
Visualization orbit readout
Latitude
Unknown
Longitude
Unknown
Altitude
Unknown
Speed
Unknown
Apparent Right ascension
Unknown
Apparent Declination
Unknown
Sunlit
N/A
Visualization observer readout
Local Sidereal Time
03:57:37
Azimuth
Unknown
Elevation
Unknown
Doppler factor
Unknown
Orbital elements
Apogee altitude
783.2 km
Perigee altitude
699.607 km
Semi-major axis
7,119.541 km
Eccentricity
0.00587
Inclination
98.5837°
RAAN
194.1357°
Arg. of periapsis
336.0993°
True anomaly
38.7021°
Mean anomaly
38.2829°
Eccentric anomaly
38.49226°
Mean motion
3.61298 °/min
Orbital period
99.64 mins
BSTAR
0.00022049
Loading maneuver chart data...
Computing Atmospheric mass density...

Documentation

Showing up to 5 results
|